QPF
0.20 0.34 0.55 0.80 1.27 2.00 2.67 2.89 2.60 1.86 1.28 0.84 0.55 0.28 0.14 0.07 0.03 0.02 0.01 0.00 0.00 0.00 0.00 0.00 0.00 0.00 0.00 0.00 0.00 0.00 0.00 0.00 0.00 0.00 0.00 0.00 0.00 0.00 0.00 0.00 0.00 0.01 0.01
0.25 0.44 0.70 1.08 1.56 1.99 2.29 2.25 1.86 1.25 0.87 0.57 0.31 0.15 0.09 0.04 0.01 0.01 0.01 0.00 0.00 0.00 0.00 0.00 0.00 0.00 0.00 0.00 0.00 0.00 0.00 0.00 0.00 0.00 0.00 0.00 0.00 0.00 0.00 0.01 0.01 0.01 0.03
0.32 0.48 0.86 1.29 1.36 1.46 1.50 1.24 0.90 0.62 0.50 0.30 0.15 0.09 0.04 0.02 0.01 0.01 0.01 0.00 0.00 0.00 0.00 0.00 0.00 0.00 0.00 0.00 0.00 0.00 0.00 0.00 0.00 0.00 0.01 0.01 0.00 0.00 0.00 0.01 0.03 0.04 0.05
0.23 0.29 0.51 0.82 0.78 0.71 0.67 0.52 0.40 0.31 0.25 0.18 0.15 0.10 0.06 0.04 0.04 0.03 0.02 0.01 0.00 0.00 0.00 0.00 0.00 0.00 0.00 0.00 0.00 0.00 0.00 0.00 0.00 0.00 0.01 0.01 0.01 0.01 0.00 0.00 0.01 0.03 0.05
0.05 0.07 0.14 0.21 0.24 0.24 0.31 0.35 0.27 0.24 0.24 0.19 0.15 0.12 0.10 0.08 0.07 0.06 0.04 0.03 0.02 0.01 0.01 0.00 0.00 0.00 0.00 0.00 0.00 0.00 0.00 0.00 0.00 0.00 0.00 0.00 0.01 0.02 0.01 0.00 0.00 0.00 0.03
0.00 0.01 0.02 0.03 0.06 0.09 0.14 0.18 0.17 0.20 0.24 0.25 0.20 0.16 0.12 0.09 0.08 0.07 0.06 0.06 0.05 0.03 0.02 0.01 0.01 0.00 0.00 0.00 0.00 0.00 0.00 0.00 0.00 0.00 0.00 0.00 0.00 0.01 0.01 0.01 0.00 0.00 0.01
0.00 0.00 0.01 0.02 0.03 0.05 0.08 0.10 0.10 0.11 0.13 0.16 0.17 0.15 0.13 0.10 0.09 0.08 0.06 0.07 0.07 0.07 0.06 0.04 0.03 0.02 0.01 0.00 0.00 0.00 0.00 0.00 0.00 0.00 0.00 0.00 0.00 0.01 0.01 0.01 0.00 0.00 0.00
0.00 0.00 0.00 0.01 0.01 0.02 0.03 0.03 0.03 0.04 0.04 0.05 0.06 0.07 0.08 0.10 0.11 0.10 0.09 0.10 0.13 0.14 0.13 0.11 0.07 0.05 0.04 0.02 0.00 0.00 0.00 0.00 0.00 0.00 0.00 0.00 0.00 0.01 0.01 0.01 0.01 0.01 0.01
0.00 0.00 0.00 0.00 0.00 0.00 0.00 0.00 0.01 0.01 0.01 0.01 0.02 0.02 0.03 0.04 0.05 0.06 0.07 0.09 0.13 0.16 0.16 0.15 0.13 0.11 0.08 0.05 0.03 0.01 0.00 0.00 0.00 0.00 0.00 0.00 0.00 0.00 0.01 0.01 0.01 0.02 0.01
0.00 0.00 0.00 0.00 0.00 0.00 0.00 0.00 0.00 0.00 0.00 0.00 0.00 0.00 0.00 0.01 0.01 0.01 0.02 0.03 0.05 0.08 0.11 0.13 0.12 0.11 0.10 0.08 0.05 0.02 0.01 0.00 0.00 0.00 0.00 0.00 0.00 0.00 0.00 0.01 0.01 0.02 0.02
0.00 0.00 0.00 0.00 0.00 0.00 0.00 0.00 0.00 0.00 0.00 0.00 0.00 0.00 0.00 0.00 0.00 0.00 0.00 0.00 0.01 0.02 0.03 0.05 0.07 0.08 0.09 0.09 0.07 0.04 0.02 0.01 0.00 0.00 0.00 0.00 0.00 0.00 0.00 0.00 0.01 0.02 0.04
0.00 0.00 0.00 0.00 0.00 0.00 0.00 0.00 0.00 0.00 0.00 0.00 0.00 0.00 0.00 0.00 0.00 0.00 0.00 0.00 0.00 0.00 0.00 0.00 0.01 0.03 0.05 0.07 0.08 0.06 0.04 0.02 0.01 0.00 0.00 0.00 0.00 0.00 0.00 0.00 0.01 0.03 0.06
0.00 0.00 0.00 0.00 0.00 0.00 0.00 0.00 0.00 0.00 0.00 0.00 0.00 0.00 0.00 0.00 0.00 0.00 0.00 0.00 0.00 0.00 0.00 0.00 0.00 0.00 0.01 0.03 0.06 0.06 0.05 0.03 0.01 0.01 0.00 0.00 0.00 0.00 0.00 0.00 0.01 0.03 0.06
0.00 0.00 0.00 0.00 0.00 0.00 0.00 0.00 0.00 0.00 0.00 0.00 0.00 0.00 0.00 0.00 0.00 0.00 0.00 0.00 0.00 0.00 0.00 0.00 0.00 0.00 0.00 0.01 0.03 0.05 0.05 0.04 0.03 0.02 0.01 0.00 0.00 0.00 0.00 0.00 0.01 0.03 0.04
0.00 0.00 0.00 0.00 0.00 0.00 0.00 0.00 0.00 0.00 0.00 0.00 0.00 0.00 0.00 0.00 0.00 0.00 0.00 0.00 0.00 0.00 0.00 0.00 0.00 0.00 0.00 0.00 0.02 0.04 0.05 0.05 0.05 0.04 0.02 0.01 0.00 0.00 0.00 0.00 0.01 0.02 0.03
0.00 0.00 0.00 0.00 0.00 0.00 0.00 0.00 0.00 0.00 0.00 0.00 0.00 0.00 0.00 0.00 0.00 0.00 0.00 0.00 0.00 0.00 0.00 0.00 0.00 0.00 0.00 0.00 0.01 0.02 0.04 0.05 0.05 0.05 0.04 0.02 0.01 0.00 0.00 0.00 0.00 0.01 0.02
0.00 0.00 0.00 0.00 0.00 0.00 0.00 0.00 0.00 0.00 0.00 0.00 0.00 0.00 0.00 0.00 0.00 0.00 0.00 0.00 0.00 0.01 0.01 0.01 0.00 0.00 0.00 0.00 0.01 0.01 0.03 0.05 0.05 0.05 0.04 0.03 0.01 0.01 0.01 0.00 0.00 0.01 0.02
0.00 0.00 0.00 0.00 0.00 0.00 0.00 0.00 0.00 0.00 0.00 0.00 0.00 0.00 0.00 0.00 0.00 0.00 0.00 0.01 0.01 0.01 0.01 0.01 0.01 0.01 0.00 0.00 0.00 0.01 0.03 0.05 0.06 0.07 0.06 0.04 0.02 0.01 0.01 0.00 0.00 0.01 0.02
0.00 0.00 0.00 0.00 0.00 0.00 0.00 0.00 0.00 0.00 0.00 0.00 0.00 0.00 0.00 0.00 0.00 0.00 0.00 0.01 0.01 0.01 0.01 0.01 0.01 0.01 0.00 0.00 0.00 0.01 0.03 0.05 0.08 0.09 0.09 0.06 0.03 0.02 0.01 0.00 0.00 0.00 0.02
0.00 0.00 0.00 0.00 0.00 0.00 0.00 0.00 0.00 0.00 0.01 0.01 0.01 0.01 0.01 0.01 0.01 0.01 0.00 0.00 0.01 0.01 0.00 0.00 0.00 0.01 0.00 0.00 0.00 0.02 0.03 0.06 0.09 0.12 0.13 0.11 0.06 0.03 0.01 0.00 0.00 0.00 0.01
0.00 0.00 0.00 0.00 0.00 0.00 0.00 0.01 0.01 0.02 0.02 0.02 0.02 0.02 0.02 0.02 0.01 0.01 0.01 0.01 0.01 0.01 0.01 0.01 0.00 0.00 0.00 0.00 0.00 0.01 0.03 0.08 0.15 0.19 0.19 0.17 0.12 0.05 0.02 0.01 0.00 0.00 0.01
0.00 0.00 0.00 0.00 0.00 0.00 0.01 0.02 0.03 0.02 0.03 0.03 0.03 0.02 0.02 0.02 0.02 0.02 0.01 0.01 0.01 0.01 0.01 0.01 0.00 0.00 0.00 0.00 0.00 0.01 0.03 0.08 0.17 0.26 0.29 0.26 0.20 0.09 0.03 0.01 0.01 0.01 0.01
0.00 0.00 0.00 0.00 0.00 0.01 0.02 0.04 0.04 0.04 0.04 0.04 0.03 0.02 0.02 0.02 0.02 0.02 0.02 0.01 0.01 0.01 0.01 0.01 0.01 0.00 0.01 0.01 0.00 0.00 0.02 0.07 0.17 0.30 0.38 0.36 0.28 0.15 0.06 0.02 0.01 0.00 0.00
0.00 0.00 0.00 0.01 0.01 0.01 0.02 0.03 0.04 0.05 0.06 0.05 0.04 0.03 0.03 0.03 0.03 0.04 0.04 0.03 0.02 0.01 0.01 0.01 0.01 0.01 0.02 0.01 0.01 0.01 0.01 0.06 0.17 0.33 0.40 0.41 0.33 0.21 0.10 0.04 0.01 0.00 0.00
0.00 0.01 0.01 0.02 0.02 0.02 0.02 0.03 0.04 0.05 0.06 0.05 0.05 0.05 0.05 0.06 0.05 0.05 0.05 0.04 0.03 0.03 0.02 0.01 0.01 0.02 0.02 0.02 0.03 0.02 0.02 0.06 0.18 0.33 0.44 0.43 0.35 0.23 0.13 0.06 0.02 0.00 0.00
0.02 0.02 0.02 0.02 0.02 0.02 0.03 0.03 0.03 0.05 0.05 0.05 0.05 0.06 0.06 0.06 0.07 0.06 0.06 0.04 0.03 0.02 0.01 0.01 0.01 0.01 0.02 0.02 0.02 0.02 0.03 0.07 0.17 0.29 0.41 0.42 0.33 0.21 0.12 0.05 0.02 0.01 0.00
MSLP
1012.74 1012.45 1012.01 1011.44 1010.77 1010.06 1009.37 1008.76 1008.29 1007.98 1007.83 1007.82 1007.92 1008.07 1008.23 1008.37 1008.47 1008.55 1008.61 1008.70 1008.83 1009.04 1009.31 1009.65 1010.02 1010.38 1010.69 1010.93 1011.06 1011.08 1011.02 1010.88 1010.71 1010.53 1010.36 1010.20 1010.07 1009.95 1009.83 1009.70 1009.56 1009.42 1009.30
1013.41 1013.01 1012.47 1011.80 1011.04 1010.27 1009.55 1008.96 1008.53 1008.31 1008.26 1008.36 1008.54 1008.74 1008.89 1008.96 1008.95 1008.86 1008.75 1008.66 1008.65 1008.76 1008.99 1009.33 1009.75 1010.18 1010.57 1010.88 1011.06 1011.11 1011.04 1010.89 1010.68 1010.47 1010.27 1010.11 1009.97 1009.85 1009.74 1009.60 1009.45 1009.28 1009.10
1013.79 1013.35 1012.78 1012.11 1011.36 1010.62 1009.94 1009.39 1009.04 1008.89 1008.93 1009.10 1009.32 1009.52 1009.64 1009.63 1009.48 1009.23 1008.95 1008.70 1008.55 1008.54 1008.71 1009.03 1009.45 1009.92 1010.35 1010.70 1010.91 1010.98 1010.92 1010.77 1010.56 1010.34 1010.15 1010.00 1009.88 1009.79 1009.70 1009.58 1009.42 1009.22 1008.99
1013.92 1013.50 1012.99 1012.39 1011.73 1011.07 1010.47 1010.01 1009.73 1009.64 1009.72 1009.91 1010.13 1010.30 1010.36 1010.25 1009.99 1009.61 1009.18 1008.80 1008.52 1008.41 1008.50 1008.77 1009.17 1009.62 1010.05 1010.41 1010.63 1010.71 1010.66 1010.51 1010.32 1010.13 1009.97 1009.86 1009.79 1009.74 1009.69 1009.59 1009.43 1009.21 1008.93
1013.88 1013.53 1013.12 1012.65 1012.12 1011.58 1011.08 1010.70 1010.47 1010.41 1010.49 1010.66 1010.84 1010.96 1010.95 1010.77 1010.42 1009.95 1009.43 1008.95 1008.58 1008.39 1008.39 1008.59 1008.92 1009.32 1009.71 1010.03 1010.24 1010.31 1010.26 1010.13 1009.97 1009.82 1009.72 1009.66 1009.65 1009.66 1009.65 1009.58 1009.44 1009.21 1008.90
1013.73 1013.48 1013.20 1012.87 1012.48 1012.07 1011.67 1011.35 1011.15 1011.08 1011.13 1011.25 1011.37 1011.44 1011.37 1011.14 1010.76 1010.25 1009.69 1009.17 1008.75 1008.49 1008.41 1008.52 1008.76 1009.06 1009.37 1009.62 1009.78 1009.82 1009.77 1009.66 1009.54 1009.44 1009.39 1009.40 1009.45 1009.51 1009.55 1009.52 1009.39 1009.16 1008.84
1013.55 1013.40 1013.25 1013.05 1012.79 1012.48 1012.16 1011.87 1011.67 1011.57 1011.56 1011.61 1011.68 1011.69 1011.59 1011.36 1010.98 1010.50 1009.96 1009.44 1009.01 1008.70 1008.56 1008.57 1008.69 1008.88 1009.07 1009.22 1009.29 1009.29 1009.23 1009.13 1009.04 1008.99 1009.00 1009.06 1009.16 1009.27 1009.34 1009.34 1009.24 1009.04 1008.74
1013.40 1013.33 1013.27 1013.17 1013.00 1012.76 1012.48 1012.21 1011.98 1011.83 1011.75 1011.74 1011.75 1011.73 1011.63 1011.42 1011.10 1010.69 1010.22 1009.75 1009.34 1009.02 1008.81 1008.72 1008.72 1008.77 1008.82 1008.85 1008.83 1008.77 1008.68 1008.59 1008.52 1008.50 1008.55 1008.65 1008.78 1008.92 1009.01 1009.04 1008.97 1008.81 1008.56
1013.32 1013.28 1013.27 1013.22 1013.10 1012.89 1012.63 1012.34 1012.07 1011.86 1011.72 1011.65 1011.61 1011.58 1011.51 1011.36 1011.13 1010.81 1010.44 1010.06 1009.69 1009.37 1009.11 1008.93 1008.81 1008.71 1008.63 1008.53 1008.42 1008.29 1008.16 1008.06 1008.00 1008.00 1008.07 1008.18 1008.32 1008.46 1008.57 1008.61 1008.57 1008.46 1008.28
1013.32 1013.28 1013.26 1013.21 1013.08 1012.87 1012.58 1012.26 1011.94 1011.68 1011.49 1011.37 1011.31 1011.28 1011.24 1011.17 1011.03 1010.83 1010.57 1010.28 1009.97 1009.66 1009.38 1009.13 1008.90 1008.68 1008.47 1008.26 1008.06 1007.86 1007.70 1007.58 1007.52 1007.52 1007.58 1007.68 1007.81 1007.93 1008.02 1008.06 1008.06 1008.00 1007.91
1013.38 1013.30 1013.23 1013.12 1012.95 1012.69 1012.36 1011.99 1011.64 1011.33 1011.09 1010.94 1010.86 1010.84 1010.84 1010.83 1010.79 1010.69 1010.54 1010.34 1010.09 1009.82 1009.53 1009.22 1008.92 1008.61 1008.31 1008.01 1007.74 1007.49 1007.30 1007.16 1007.09 1007.07 1007.11 1007.17 1007.26 1007.34 1007.40 1007.43 1007.44 1007.44 1007.44
1013.48 1013.30 1013.14 1012.95 1012.69 1012.37 1011.99 1011.58 1011.18 1010.84 1010.57 1010.39 1010.29 1010.27 1010.29 1010.33 1010.36 1010.35 1010.29 1010.17 1009.99 1009.75 1009.47 1009.16 1008.81 1008.45 1008.10 1007.75 1007.43 1007.16 1006.95 1006.79 1006.70 1006.66 1006.66 1006.69 1006.71 1006.74 1006.75 1006.76 1006.77 1006.80 1006.88
1013.54 1013.25 1012.97 1012.66 1012.31 1011.91 1011.48 1011.03 1010.61 1010.24 1009.94 1009.74 1009.62 1009.59 1009.61 1009.67 1009.74 1009.78 1009.78 1009.73 1009.61 1009.43 1009.19 1008.89 1008.55 1008.18 1007.80 1007.44 1007.12 1006.84 1006.62 1006.46 1006.35 1006.29 1006.25 1006.22 1006.19 1006.15 1006.11 1006.08 1006.08 1006.13 1006.26
1013.51 1013.09 1012.68 1012.26 1011.81 1011.34 1010.86 1010.39 1009.94 1009.55 1009.23 1009.00 1008.86 1008.80 1008.80 1008.85 1008.93 1009.00 1009.04 1009.04 1008.98 1008.86 1008.67 1008.41 1008.11 1007.77 1007.42 1007.07 1006.76 1006.49 1006.28 1006.13 1006.01 1005.93 1005.85 1005.78 1005.69 1005.60 1005.51 1005.43 1005.41 1005.46 1005.61
1013.35 1012.81 1012.28 1011.74 1011.21 1010.68 1010.16 1009.67 1009.21 1008.81 1008.48 1008.22 1008.04 1007.94 1007.90 1007.92 1007.98 1008.05 1008.12 1008.16 1008.15 1008.09 1007.96 1007.77 1007.52 1007.24 1006.93 1006.63 1006.35 1006.11 1005.92 1005.77 1005.65 1005.56 1005.46 1005.36 1005.24 1005.10 1004.96 1004.85 1004.80 1004.83 1004.98
1013.04 1012.39 1011.76 1011.13 1010.53 1009.96 1009.42 1008.92 1008.47 1008.06 1007.71 1007.43 1007.21 1007.05 1006.97 1006.94 1006.96 1007.02 1007.09 1007.16 1007.20 1007.20 1007.14 1007.02 1006.84 1006.61 1006.37 1006.11 1005.87 1005.66 1005.49 1005.36 1005.25 1005.16 1005.06 1004.95 1004.81 1004.65 1004.50 1004.36 1004.29 1004.31 1004.44
1012.62 1011.88 1011.17 1010.48 1009.84 1009.24 1008.70 1008.20 1007.75 1007.34 1006.98 1006.67 1006.40 1006.20 1006.05 1005.97 1005.96 1005.99 1006.05 1006.14 1006.21 1006.26 1006.26 1006.21 1006.10 1005.94 1005.74 1005.53 1005.33 1005.15 1005.00 1004.89 1004.80 1004.72 1004.64 1004.54 1004.41 1004.27 1004.12 1003.99 1003.91 1003.92 1004.03
1012.13 1011.34 1010.57 1009.85 1009.19 1008.58 1008.04 1007.55 1007.10 1006.69 1006.32 1005.98 1005.68 1005.42 1005.22 1005.09 1005.03 1005.03 1005.08 1005.17 1005.27 1005.35 1005.40 1005.40 1005.34 1005.23 1005.08 1004.91 1004.74 1004.59 1004.46 1004.37 1004.30 1004.25 1004.19 1004.13 1004.05 1003.94 1003.83 1003.74 1003.68 1003.69 1003.80
1011.65 1010.83 1010.04 1009.31 1008.64 1008.03 1007.49 1007.00 1006.56 1006.14 1005.75 1005.38 1005.04 1004.74 1004.49 1004.31 1004.20 1004.17 1004.20 1004.29 1004.39 1004.50 1004.58 1004.61 1004.59 1004.52 1004.41 1004.27 1004.12 1003.99 1003.88 1003.81 1003.77 1003.75 1003.74 1003.73 1003.71 1003.67 1003.63 1003.60 1003.59 1003.64 1003.77
1011.22 1010.41 1009.62 1008.89 1008.21 1007.61 1007.06 1006.57 1006.11 1005.68 1005.27 1004.87 1004.49 1004.14 1003.85 1003.63 1003.48 1003.41 1003.41 1003.48 1003.58 1003.69 1003.78 1003.84 1003.85 1003.80 1003.72 1003.61 1003.49 1003.38 1003.29 1003.24 1003.23 1003.25 1003.29 1003.35 1003.40 1003.44 1003.49 1003.54 1003.62 1003.73 1003.91
1010.90 1010.10 1009.32 1008.59 1007.92 1007.30 1006.74 1006.23 1005.74 1005.28 1004.83 1004.40 1003.98 1003.59 1003.26 1002.99 1002.80 1002.69 1002.67 1002.70 1002.79 1002.89 1002.99 1003.06 1003.09 1003.08 1003.03 1002.95 1002.86 1002.78 1002.73 1002.71 1002.73 1002.78 1002.87 1002.98 1003.11 1003.24 1003.38 1003.53 1003.70 1003.91 1004.16
1010.67 1009.89 1009.13 1008.40 1007.71 1007.07 1006.48 1005.92 1005.40 1004.90 1004.40 1003.92 1003.46 1003.04 1002.66 1002.35 1002.13 1001.98 1001.92 1001.93 1001.99 1002.08 1002.18 1002.27 1002.33 1002.35 1002.34 1002.31 1002.26 1002.22 1002.21 1002.22 1002.28 1002.37 1002.50 1002.65 1002.84 1003.04 1003.27 1003.52 1003.79 1004.10 1004.45
1010.50 1009.74 1008.99 1008.25 1007.53 1006.86 1006.22 1005.62 1005.04 1004.48 1003.93 1003.41 1002.91 1002.44 1002.03 1001.69 1001.42 1001.24 1001.14 1001.12 1001.16 1001.24 1001.35 1001.45 1001.54 1001.61 1001.66 1001.69 1001.71 1001.73 1001.76 1001.81 1001.90 1002.02 1002.17 1002.36 1002.58 1002.84 1003.13 1003.46 1003.83 1004.24 1004.69
1010.35 1009.60 1008.84 1008.08 1007.33 1006.61 1005.92 1005.25 1004.61 1003.99 1003.40 1002.83 1002.29 1001.80 1001.36 1000.98 1000.69 1000.48 1000.35 1000.30 1000.32 1000.40 1000.51 1000.64 1000.77 1000.90 1001.02 1001.13 1001.22 1001.31 1001.40 1001.49 1001.61 1001.74 1001.90 1002.10 1002.34 1002.62 1002.96 1003.34 1003.79 1004.29 1004.84
1010.16 1009.41 1008.64 1007.85 1007.06 1006.29 1005.53 1004.80 1004.11 1003.44 1002.80 1002.20 1001.64 1001.13 1000.67 1000.28 999.97 999.74 999.59 999.52 999.53 999.60 999.72 999.88 1000.07 1000.26 1000.46 1000.64 1000.82 1000.98 1001.13 1001.27 1001.40 1001.55 1001.70 1001.89 1002.12 1002.40 1002.75 1003.16 1003.66 1004.22 1004.85
1009.92 1009.16 1008.36 1007.54 1006.71 1005.88 1005.07 1004.29 1003.54 1002.84 1002.18 1001.56 1001.00 1000.48 1000.03 999.65 999.33 999.09 998.93 998.85 998.85 998.93 999.06 999.25 999.48 999.74 1000.00 1000.27 1000.52 1000.75 1000.96 1001.13 1001.29 1001.43 1001.57 1001.73 1001.93 1002.19 1002.53 1002.95 1003.46 1004.07 1004.74
Thickness
5748 5750 5750 5750 5751 5750 5748 5746 5738 5732 5726 5725 5726 5729 5731 5737 5740 5741 5741 5739 5738 5736 5733 5730 5728 5726 5724 5723 5724 5724 5724 5724 5727 5726 5726 5730 5734 5735 5734 5733 5732 5731 5731
5736 5739 5740 5742 5743 5742 5741 5739 5734 5729 5722 5721 5723 5725 5728 5731 5736 5737 5735 5734 5733 5731 5729 5726 5723 5722 5721 5719 5719 5719 5718 5720 5723 5721 5718 5717 5721 5727 5732 5730 5728 5728 5728
5727 5730 5733 5735 5736 5733 5729 5726 5724 5721 5718 5720 5721 5722 5723 5723 5724 5725 5726 5728 5728 5727 5726 5723 5721 5719 5718 5715 5715 5715 5714 5713 5717 5719 5716 5711 5709 5714 5722 5725 5724 5723 5721
5720 5723 5726 5724 5723 5721 5720 5716 5713 5710 5710 5712 5712 5712 5710 5710 5712 5715 5718 5721 5722 5722 5721 5720 5718 5716 5714 5712 5711 5712 5711 5710 5709 5713 5716 5715 5714 5709 5708 5715 5719 5719 5717
5712 5713 5713 5712 5710 5709 5708 5705 5702 5700 5698 5699 5700 5701 5701 5702 5704 5706 5708 5711 5714 5715 5715 5715 5713 5712 5709 5708 5707 5706 5706 5706 5706 5707 5708 5710 5710 5710 5705 5705 5709 5712 5713
5704 5703 5702 5700 5697 5696 5694 5692 5690 5689 5688 5687 5687 5687 5687 5689 5691 5693 5695 5698 5701 5704 5707 5708 5708 5707 5705 5703 5702 5701 5701 5702 5703 5704 5704 5704 5704 5704 5703 5702 5703 5704 5707
5696 5694 5691 5688 5685 5682 5680 5678 5675 5674 5675 5675 5675 5674 5673 5674 5675 5677 5680 5683 5686 5690 5695 5699 5700 5700 5700 5699 5697 5696 5696 5697 5698 5699 5701 5702 5703 5704 5703 5701 5700 5699 5701
5687 5685 5681 5678 5675 5673 5670 5667 5664 5661 5661 5660 5660 5660 5660 5661 5661 5663 5665 5667 5670 5674 5680 5686 5690 5692 5693 5693 5692 5691 5691 5692 5693 5695 5697 5698 5699 5701 5701 5699 5697 5694 5693
5677 5674 5670 5666 5662 5659 5656 5654 5651 5649 5648 5647 5646 5645 5645 5645 5646 5647 5649 5651 5654 5659 5663 5669 5674 5678 5681 5683 5684 5684 5685 5686 5687 5689 5692 5693 5695 5697 5698 5698 5696 5691 5688
5667 5664 5659 5655 5650 5644 5639 5636 5634 5632 5632 5632 5630 5630 5628 5628 5628 5630 5632 5634 5638 5642 5646 5650 5655 5661 5666 5670 5673 5675 5677 5679 5681 5683 5685 5687 5689 5691 5693 5694 5693 5692 5688
5657 5653 5648 5644 5638 5631 5624 5618 5613 5610 5609 5609 5609 5609 5609 5609 5610 5610 5613 5616 5620 5624 5628 5632 5637 5642 5648 5655 5659 5664 5668 5671 5674 5676 5679 5682 5684 5686 5687 5689 5689 5688 5687
5646 5640 5634 5628 5621 5614 5607 5601 5595 5590 5587 5586 5585 5584 5585 5585 5586 5588 5592 5596 5599 5604 5608 5613 5618 5624 5630 5636 5643 5650 5656 5660 5664 5668 5671 5675 5678 5680 5682 5683 5684 5684 5685
5633 5625 5618 5612 5605 5599 5593 5586 5580 5574 5570 5567 5564 5562 5561 5560 5562 5565 5569 5573 5577 5582 5587 5592 5598 5604 5611 5617 5625 5633 5641 5648 5655 5659 5663 5668 5671 5673 5676 5678 5679 5681 5682
5618 5611 5604 5598 5593 5587 5581 5575 5569 5564 5559 5555 5551 5548 5548 5548 5548 5549 5550 5553 5556 5560 5565 5571 5578 5585 5592 5599 5607 5615 5624 5633 5642 5649 5655 5660 5664 5667 5670 5672 5675 5677 5679
5609 5602 5595 5588 5582 5577 5572 5567 5563 5558 5554 5550 5546 5544 5544 5544 5543 5543 5543 5543 5544 5547 5550 5553 5559 5565 5572 5581 5589 5597 5607 5617 5627 5636 5645 5652 5658 5662 5665 5668 5670 5673 5675
5601 5595 5589 5582 5576 5571 5567 5563 5559 5555 5551 5547 5544 5543 5541 5540 5539 5539 5539 5539 5539 5540 5541 5542 5545 5549 5556 5564 5572 5580 5589 5600 5611 5622 5632 5641 5649 5654 5658 5663 5667 5670 5672
5593 5588 5583 5577 5572 5567 5563 5558 5554 5551 5546 5543 5541 5538 5536 5534 5533 5533 5533 5532 5532 5534 5535 5537 5538 5541 5544 5549 5555 5562 5572 5583 5595 5608 5619 5630 5639 5645 5649 5654 5660 5666 5669
5586 5581 5574 5569 5563 5558 5552 5548 5544 5540 5537 5534 5532 5530 5528 5527 5525 5524 5523 5523 5523 5525 5527 5530 5533 5535 5539 5541 5543 5548 5556 5566 5580 5594 5607 5618 5628 5635 5640 5645 5651 5657 5662
5577 5570 5563 5556 5549 5542 5536 5531 5528 5524 5521 5519 5518 5518 5517 5516 5515 5514 5513 5513 5513 5516 5519 5523 5527 5530 5534 5537 5538 5540 5543 5552 5565 5580 5594 5606 5616 5625 5631 5636 5641 5646 5650
5569 5561 5554 5545 5536 5529 5521 5515 5510 5506 5503 5502 5501 5501 5501 5502 5502 5503 5503 5503 5505 5507 5511 5516 5521 5526 5529 5533 5535 5536 5536 5542 5552 5566 5581 5594 5605 5613 5621 5627 5632 5636 5640
5562 5554 5545 5535 5526 5518 5510 5502 5496 5491 5488 5485 5484 5484 5485 5486 5489 5490 5492 5493 5496 5499 5503 5508 5514 5519 5525 5529 5532 5534 5533 5535 5542 5554 5567 5582 5593 5601 5610 5618 5624 5629 5632
5557 5549 5540 5530 5521 5512 5502 5495 5488 5483 5479 5475 5473 5472 5473 5474 5478 5479 5481 5483 5486 5490 5495 5500 5505 5512 5518 5524 5527 5530 5531 5533 5536 5545 5557 5571 5582 5590 5598 5607 5613 5617 5622
5552 5545 5535 5528 5519 5509 5499 5491 5486 5480 5474 5469 5466 5465 5465 5466 5467 5469 5472 5476 5479 5483 5488 5493 5498 5505 5511 5517 5523 5526 5528 5530 5532 5538 5549 5562 5571 5579 5587 5596 5602 5608 5613
5550 5542 5534 5527 5519 5510 5500 5491 5484 5477 5471 5466 5463 5461 5460 5460 5461 5463 5466 5469 5474 5478 5483 5488 5493 5498 5504 5510 5515 5519 5522 5525 5527 5531 5540 5552 5561 5571 5580 5586 5593 5600 5604
5547 5540 5532 5525 5518 5510 5501 5493 5485 5477 5470 5465 5462 5460 5458 5457 5458 5459 5461 5466 5471 5476 5480 5485 5489 5494 5498 5506 5511 5514 5518 5521 5523 5526 5533 5543 5552 5562 5571 5578 5585 5591 5595
5546 5539 5533 5525 5518 5511 5503 5496 5487 5479 5472 5467 5463 5460 5458 5457 5456 5457 5461 5465 5469 5474 5478 5483 5487 5493 5499 5504 5507 5510 5514 5516 5518 5522 5530 5539 5549 5557 5566 5573 5578 5583 5588